This demonstration page uses our WeatherBlox Daily Observations layout. Learn more.

Left ArrowRight Arrow

36.17497, -115.13722

Hourly Observations for July 21, 2017

Temp ( °F °C ) Dew Point ( °F °C ) Humidity (%) Winds ( mph kmh ) Pressure ( in mb ) Visibility ( mi km ) Precip ( " mm )
12:25 am 00:25 Clear with Nearby Thunderstorms 89 31.7 53 11.7 29 29 SE 7 11 29.71 1006 10 16 N/A
12:40 am 00:40 Clear 88 31.1 53 11.7 30 30 SSE 7 11 29.74 1007 10 16 N/A
12:53 am 00:53 Clear 89 31.7 54 12.2 30 30 S 7 11 29.83 1010 10 16 N/A
1:53 am 01:53 Clear 86 30 51 10.6 30 30 SSW 3 6 29.83 1010 10 16 N/A
2:53 am 02:53 Clear 83 28.3 51 10.6 33 33 N N/A 29.83 1010 10 16 N/A
3:53 am 03:53 Clear 83 28.3 54 12.2 37 37 W 3 6 29.83 1010 10 16 N/A
4:53 am 04:53 Clear 81 27.2 54 12.2 39 39 NNE 3 6 29.85 1011 10 16 N/A
5:53 am 05:53 Sunny 81 27.2 54 12.2 39 39 N N/A 29.87 1012 10 16 N/A
6:53 am 06:53 Sunny 84 28.9 48 8.9 29 29 N 5 7 29.88 1012 10 16 N/A
7:53 am 07:53 Sunny 87 30.6 48 8.9 26 26 ESE 5 7 29.90 1012 10 16 N/A
8:53 am 08:53 Sunny 89 31.7 47 8.3 23 23 N N/A 29.91 1013 10 16 N/A
9:53 am 09:53 Sunny 93 33.9 48 8.9 21 21 VRB 5 7 29.91 1013 10 16 N/A
10:53 am 10:53 Sunny 97 36.1 39 3.9 13 13 SE 7 11 29.90 1013 10 16 N/A
11:53 am 11:53 Sunny 100 37.8 47 8.3 16 16 SSE 14 22 29.88 1012 10 16 N/A
12:53 pm 12:53 Sunny 102 38.9 47 8.3 15 15 S 15 24 29.86 1011 10 16 N/A
1:53 pm 13:53 Sunny 102 38.9 47 8.3 15 15 S 15 24 29.83 1010 10 16 N/A
2:53 pm 14:53 Sunny 103 39.4 47 8.3 15 15 SSE 12 19 29.80 1009 10 16 N/A
3:43 pm 15:43 Sunny with Thunderstorms 104 40 46 7.8 14 14 SSE 10 17 29.59 1002 10 16 N/A
3:53 pm 15:53 Sunny with Thunderstorms 104 40 46 7.8 14 14 SE 10 17 29.77 1008 10 16 N/A
4:11 pm 16:11 Sunny with Nearby Thunderstorms 104 40 46 7.8 14 14 SSE 13 20 29.56 1001 10 16 N/A
4:21 pm 16:21 Sunny 104 40 46 7.8 14 14 VRB 6 9 29.56 1001 10 16 N/A
4:53 pm 16:53 Sunny 105 40.6 46 7.8 14 14 ESE 5 7 29.75 1008 10 16 N/A
5:53 pm 17:53 Sunny 104 40 47 8.3 15 15 SE 10 17 29.74 1007 10 16 N/A
6:53 pm 18:53 Sunny 103 39.4 45 7.2 14 14 S 9 15 29.74 1007 10 16 N/A
7:53 pm 19:53 Sunny 102 38.9 40 4.4 12 12 SW 9 15 29.75 1007 10 16 N/A
8:53 pm 20:53 Clear 100 37.8 40 4.4 13 13 WSW 7 11 29.77 1008 10 16 N/A
9:53 pm 21:53 Clear 96 35.6 40 4.4 14 14 SSE 7 11 29.79 1009 10 16 N/A
10:53 pm 22:53 Clear 95 35 40 4.4 15 15 S 8 13 29.80 1009 10 16 N/A
11:53 pm 23:53 Clear 94 34.4 38 3.3 14 14 S 10 17 29.80 1009 10 16 N/A

Powered by AerisWeather